Retour au catalogue

STARLINK-37428

ActifCommunicationsVLEO
NORAD 69184·PAYLOAD·🇺🇸 United States

Lancé May 25, 2026 depuis Cape Canaveral Space Force Station

Loading…

Prochains Passages (prochaines 24 heures)

TLE

FraisSource: CelesTrak SupGP

Époque: Sep 15, 2026, 03:31 UTC

1 69184C 26114C   26258.14701389  .00042152  00000+0  12456-2 0  2589
2 69184  53.1557 139.0533 0001315  90.8044 147.7901 15.34364732    13

Suivez STARLINK-37428 en temps réel avec AllMySat

Download on the App Store